• In Slovakia
  • List of Countries
  • For 7 days
  • Water Temperature
  • Satellite Maps
  • Weather Map
  • Weather Widgets
  • user-avatar
    Login

    Hourly Weather Igls

    Today, 22 October, Monday

    Time Temperature Precipitation Wind Pressure Humidity
    00:00 +4°C° 0 mm 1 mps 689 mmHg 77%
    01:00 +4°C° 0 mm 1 mps 689 mmHg 73%
    02:00 +4°C° 0 mm 1 mps 688 mmHg 70%
    03:00 +4°C° 0 mm 1 mps 688 mmHg 67%
    04:00 +5°C° 0 mm 1 mps 688 mmHg 65%
    05:00 +5°C° 0 mm 1 mps 688 mmHg 63%
    06:00 +5°C° 0 mm 1 mps 688 mmHg 60%
    07:00 +5°C° 0 mm 1 mps 689 mmHg 58%
    08:00 +7°C° 0 mm 1 mps 689 mmHg 51%
    09:00 +10°C° 0 mm 1 mps 689 mmHg 44%
    10:00 +13°C° 0 mm 2 mps 689 mmHg 36%
    11:00 +14°C° 0 mm 2 mps 689 mmHg 37%
    12:00 +14°C° 0 mm 2 mps 689 mmHg 39%
    13:00 +15°C° 0 mm 2 mps 689 mmHg 40%
    14:00 +14°C° 0 mm 2 mps 689 mmHg 46%
    15:00 +13°C° 0 mm 2 mps 689 mmHg 52%
    16:00 +12°C° 0 mm 2 mps 689 mmHg 58%
    17:00 +9°C° 0 mm 2 mps 689 mmHg 69%
    18:00 +7°C° 0 mm 2 mps 689 mmHg 79%
    19:00 +6°C° 0 mm 1 mps 690 mmHg 90%
    20:00 +6°C° 0 mm 1 mps 690 mmHg 90%
    21:00 +5°C° 0 mm 2 mps 690 mmHg 90%
    22:00 +4°C° 0 mm 2 mps 691 mmHg 90%
    23:00 +5°C° 0 mm 2 mps 691 mmHg 89%

    Tomorrow, 23 October, Tuesday

    Time Temperature Precipitation Wind Pressure Humidity
    00:00 +5°C° 0 mm 2 mps 691 mmHg 88%
    01:00 +5°C° 0 mm 2 mps 691 mmHg 87%
    02:00 +5°C° 0 mm 2 mps 691 mmHg 86%
    03:00 +6°C° 0 mm 1 mps 691 mmHg 84%
    04:00 +5°C° 0 mm 1 mps 690 mmHg 83%
    05:00 +5°C° 0 mm 1 mps 690 mmHg 83%
    06:00 +5°C° 0 mm 1 mps 690 mmHg 83%
    07:00 +5°C° 0 mm 1 mps 691 mmHg 83%
    08:00 +7°C° 0 mm 2 mps 691 mmHg 72%
    09:00 +9°C° 0 mm 2 mps 691 mmHg 62%
    10:00 +13°C° 0 mm 2 mps 691 mmHg 52%
    11:00 +14°C° 0 mm 2 mps 691 mmHg 49%
    12:00 +15°C° 0 mm 2 mps 691 mmHg 46%
    13:00 +16°C° 0 mm 2 mps 690 mmHg 43%
    14:00 +15°C° 0 mm 2 mps 690 mmHg 47%
    15:00 +14°C° 0 mm 2 mps 689 mmHg 51%
    16:00 +14°C° 0 mm 2 mps 689 mmHg 55%
    17:00 +12°C° 0 mm 2 mps 689 mmHg 62%
    18:00 +9°C° 0 mm 2 mps 689 mmHg 69%
    19:00 +8°C° 0 mm 2 mps 689 mmHg 76%
    20:00 +8°C° 0.1 mm 2 mps 689 mmHg 74%
    21:00 +8°C° 0.1 mm 2 mps 689 mmHg 73%
    22:00 +8°C° 0.1 mm 2 mps 689 mmHg 71%
    23:00 +8°C° 0.1 mm 2 mps 689 mmHg 71%

    Day after tomorrow, 24 October, Wednesday

    Time Temperature Precipitation Wind Pressure Humidity
    00:00 +8°C° 0.1 mm 3 mps 689 mmHg 72%
    01:00 +8°C° 0.1 mm 3 mps 688 mmHg 72%
    02:00 +8°C° 0.1 mm 3 mps 688 mmHg 74%
    03:00 +8°C° 0.1 mm 3 mps 688 mmHg 75%
    04:00 +8°C° 0.1 mm 3 mps 688 mmHg 77%
    05:00 +8°C° 0.4 mm 3 mps 688 mmHg 81%
    06:00 +8°C° 0.4 mm 3 mps 687 mmHg 84%
    07:00 +9°C° 0.4 mm 3 mps 687 mmHg 88%
    08:00 +9°C° 0.7 mm 3 mps 687 mmHg 88%
    09:00 +10°C° 0.7 mm 3 mps 687 mmHg 88%
    10:00 +10°C° 0.7 mm 3 mps 687 mmHg 89%
    11:00 +11°C° 0.9 mm 3 mps 687 mmHg 89%
    12:00 +11°C° 0.9 mm 3 mps 687 mmHg 89%
    13:00 +11°C° 0.9 mm 3 mps 687 mmHg 89%
    14:00 +11°C° 0.7 mm 3 mps 687 mmHg 90%
    15:00 +10°C° 0.7 mm 3 mps 687 mmHg 91%
    16:00 +10°C° 0.7 mm 3 mps 687 mmHg 92%
    17:00 +10°C° 0.4 mm 3 mps 687 mmHg 93%
    18:00 +10°C° 0.4 mm 3 mps 687 mmHg 95%
    19:00 +9°C° 0.4 mm 3 mps 687 mmHg 96%
    20:00 +9°C° 0.1 mm 3 mps 688 mmHg 96%
    21:00 +9°C° 0.1 mm 2 mps 688 mmHg 96%
    22:00 +9°C° 0.1 mm 2 mps 688 mmHg 96%
    23:00 +9°C° 0.1 mm 2 mps 688 mmHg 96%

    25 October, Thursday

    Time Temperature Precipitation Wind Pressure Humidity
    00:00 +9°C° 0.1 mm 2 mps 688 mmHg 97%
    01:00 +9°C° 0.1 mm 2 mps 688 mmHg 97%
    02:00 +8°C° 0 mm 2 mps 688 mmHg 96%
    03:00 +9°C° 0 mm 1 mps 687 mmHg 96%
    04:00 +8°C° 0 mm 1 mps 687 mmHg 96%
    05:00 +8°C° 0 mm 1 mps 687 mmHg 94%
    06:00 +7°C° 0 mm 1 mps 686 mmHg 93%
    07:00 +7°C° 0 mm 1 mps 686 mmHg 91%
    08:00 +9°C° 0 mm 1 mps 686 mmHg 81%
    09:00 +12°C° 0 mm 1 mps 687 mmHg 71%
    10:00 +14°C° 0 mm 1 mps 687 mmHg 61%
    11:00 +15°C° 0 mm 1 mps 687 mmHg 56%
    12:00 +16°C° 0 mm 1 mps 686 mmHg 51%
    13:00 +18°C° 0 mm 2 mps 686 mmHg 46%
    14:00 +17°C° 0 mm 2 mps 686 mmHg 52%
    15:00 +16°C° 0 mm 1 mps 685 mmHg 58%
    16:00 +15°C° 0 mm 1 mps 685 mmHg 65%
    17:00 +13°C° 0 mm 1 mps 685 mmHg 72%
    18:00 +10°C° 0 mm 1 mps 684 mmHg 79%
    19:00 +8°C° 0 mm 1 mps 684 mmHg 86%
    20:00 +8°C° 0 mm 1 mps 684 mmHg 84%
    21:00 +8°C° 0 mm 1 mps 684 mmHg 83%
    22:00 +7°C° 0 mm 1 mps 684 mmHg 81%
    23:00 +7°C° 0 mm 1 mps 683 mmHg 77%

    26 October, Friday

    Time Temperature Precipitation Wind Pressure Humidity
    00:00 +7°C° 0 mm 1 mps 683 mmHg 72%
    01:00 +7°C° 0 mm 1 mps 683 mmHg 68%
    02:00 +7°C° 0 mm 1 mps 682 mmHg 64%
    03:00 +7°C° 0 mm 1 mps 682 mmHg 59%
    04:00 +6°C° 0 mm 2 mps 682 mmHg 55%
    05:00 +6°C° 0 mm 2 mps 681 mmHg 55%
    06:00 +6°C° 0 mm 2 mps 681 mmHg 54%
    07:00 +6°C° 0 mm 2 mps 681 mmHg 54%
    08:00 +9°C° 0 mm 2 mps 681 mmHg 50%
    09:00 +13°C° 0 mm 1 mps 681 mmHg 47%
    10:00 +15°C° 0 mm 1 mps 681 mmHg 43%
    11:00 +16°C° 0 mm 2 mps 681 mmHg 42%
    12:00 +17°C° 0 mm 2 mps 681 mmHg 41%
    13:00 +18°C° 0 mm 2 mps 680 mmHg 40%
    14:00 +17°C° 0 mm 2 mps 680 mmHg 48%
    15:00 +16°C° 0 mm 2 mps 679 mmHg 56%
    16:00 +15°C° 0 mm 2 mps 679 mmHg 63%
    17:00 +13°C° 0 mm 2 mps 678 mmHg 70%
    18:00 +12°C° 0 mm 2 mps 678 mmHg 77%
    19:00 +9°C° 0 mm 2 mps 678 mmHg 84%
    20:00 +9°C° 0 mm 2 mps 678 mmHg 84%
    21:00 +9°C° 0 mm 2 mps 678 mmHg 85%
    22:00 +9°C° 0 mm 2 mps 678 mmHg 86%
    23:00 +9°C° 0 mm 2 mps 677 mmHg 87%

    27 October, Saturday

    Time Temperature Precipitation Wind Pressure Humidity
    00:00 +9°C° 0 mm 2 mps 677 mmHg 88%
    01:00 +8°C° 0 mm 2 mps 676 mmHg 90%
    02:00 +8°C° 0.2 mm 2 mps 676 mmHg 90%
    03:00 +8°C° 0.2 mm 2 mps 675 mmHg 90%
    04:00 +8°C° 0.2 mm 2 mps 674 mmHg 90%
    05:00 +8°C° 0.9 mm 2 mps 674 mmHg 91%
    06:00 +8°C° 0.9 mm 2 mps 673 mmHg 92%
    07:00 +8°C° 0.9 mm 2 mps 673 mmHg 93%
    08:00 +9°C° 1.5 mm 2 mps 673 mmHg 94%
    09:00 +9°C° 1.5 mm 2 mps 673 mmHg 94%
    10:00 +9°C° 1.5 mm 3 mps 673 mmHg 94%
    11:00 +9°C° 2.3 mm 2 mps 672 mmHg 95%
    12:00 +8°C° 2.3 mm 2 mps 672 mmHg 95%
    13:00 +8°C° 2.3 mm 2 mps 672 mmHg 96%
    14:00 +7°C° 2.9 mm 2 mps 672 mmHg 96%
    15:00 +6°C° 2.9 mm 2 mps 671 mmHg 96%
    16:00 +6°C° 2.9 mm 2 mps 671 mmHg 96%
    17:00 +5°C° 3.4 mm 2 mps 671 mmHg 97%
    18:00 +4°C° 3.4 mm 2 mps 671 mmHg 97%
    19:00 +3°C° 3.4 mm 2 mps 670 mmHg 97%
    20:00 +3°C° 2.8 mm 2 mps 671 mmHg 97%
    21:00 +3°C° 2.8 mm 2 mps 671 mmHg 97%
    22:00 +2°C° 2.8 mm 2 mps 671 mmHg 97%
    23:00 +3°C° 0.7 mm 1 mps 671 mmHg 97%

    28 October, Sunday

    Time Temperature Precipitation Wind Pressure Humidity
    00:00 +3°C° 0.7 mm 1 mps 671 mmHg 97%
    01:00 +2°C° 0.7 mm 1 mps 671 mmHg 97%
    02:00 +2°C° 0.2 mm 1 mps 671 mmHg 96%
    03:00 +2°C° 0.2 mm 1 mps 672 mmHg 96%
    04:00 +1°C° 0.2 mm 1 mps 672 mmHg 96%
    05:00 +1°C° 0.3 mm 1 mps 672 mmHg 96%
    06:00 +1°C° 0.3 mm 1 mps 673 mmHg 97%
    07:00 +1°C° 0.3 mm 1 mps 673 mmHg 97%
    08:00 +2°C° 0.3 mm 1 mps 674 mmHg 95%
    09:00 +3°C° 0.3 mm 1 mps 675 mmHg 94%
    10:00 +4°C° 0.3 mm 1 mps 675 mmHg 93%
    11:00 +5°C° 0.2 mm 1 mps 676 mmHg 92%
    12:00 +5°C° 0.2 mm 1 mps 676 mmHg 92%
    13:00 +6°C° 0.2 mm 1 mps 676 mmHg 92%
    14:00 +5°C° 0.2 mm 1 mps 676 mmHg 92%
    15:00 +5°C° 0.2 mm 1 mps 676 mmHg 92%
    16:00 +5°C° 0.2 mm 1 mps 676 mmHg 93%
    17:00 +4°C° 0.1 mm 1 mps 677 mmHg 94%
    18:00 +3°C° 0.1 mm 1 mps 677 mmHg 95%
    19:00 +2°C° 0.1 mm 1 mps 677 mmHg 96%
    20:00 +1°C° 0 mm 1 mps 677 mmHg 96%
    21:00 +1°C° 0 mm 1 mps 677 mmHg 95%
    22:00 +1°C° 0 mm 1 mps 677 mmHg 95%
    23:00 +1°C° 0 mm 1 mps 676 mmHg 95%
    Show more